Year,Month,Day,Hour,Minute,Value (Times are PST for windspeed in km/hr)
2024,03,09,00,00,4.70
2024,03,09,00,01,5.00
2024,03,09,00,02,3.80
2024,03,09,00,03,4.30
2024,03,09,00,04,2.90
2024,03,09,00,05,1.90
2024,03,09,00,06,1.90
2024,03,09,00,07,3.10
2024,03,09,00,08,2.50
2024,03,09,00,09,4.20
2024,03,09,00,10,4.30
2024,03,09,00,11,3.00
2024,03,09,00,12,4.00
2024,03,09,00,13,4.10
2024,03,09,00,14,1.80
2024,03,09,00,15,3.10
2024,03,09,00,16,4.00
2024,03,09,00,17,5.50
2024,03,09,00,18,4.20
2024,03,09,00,19,5.00
2024,03,09,00,20,4.70
2024,03,09,00,21,3.40
2024,03,09,00,22,5.30
2024,03,09,00,23,3.90
2024,03,09,00,24,4.20
2024,03,09,00,25,4.10
2024,03,09,00,26,4.70
2024,03,09,00,27,5.40
2024,03,09,00,28,5.30
2024,03,09,00,29,5.70
2024,03,09,00,30,6.30
2024,03,09,00,31,6.20
2024,03,09,00,32,5.90
2024,03,09,00,33,2.40
2024,03,09,00,34,2.00
2024,03,09,00,35,3.50
2024,03,09,00,36,5.10
2024,03,09,00,37,5.30
2024,03,09,00,38,4.80
2024,03,09,00,39,6.10
2024,03,09,00,40,5.60
2024,03,09,00,41,4.00
2024,03,09,00,42,5.10
2024,03,09,00,43,5.40
2024,03,09,00,44,4.70
2024,03,09,00,45,3.50
2024,03,09,00,46,3.60
2024,03,09,00,47,5.10
2024,03,09,00,48,4.50
2024,03,09,00,49,3.40
2024,03,09,00,50,4.90
2024,03,09,00,51,3.80
2024,03,09,00,52,4.70
2024,03,09,00,53,5.00
2024,03,09,00,54,4.00
2024,03,09,00,55,4.10
2024,03,09,00,56,4.70
2024,03,09,00,57,5.20
2024,03,09,00,58,5.30
2024,03,09,00,59,5.20
2024,03,09,01,00,4.90
2024,03,09,01,01,3.80
2024,03,09,01,02,3.50
2024,03,09,01,03,5.10
2024,03,09,01,04,4.90
2024,03,09,01,05,4.20
2024,03,09,01,06,3.70
2024,03,09,01,07,4.80
2024,03,09,01,08,5.60
2024,03,09,01,09,6.20
2024,03,09,01,10,5.40
2024,03,09,01,11,5.40
2024,03,09,01,12,4.50
2024,03,09,01,13,4.60
2024,03,09,01,14,4.60
2024,03,09,01,15,5.50
2024,03,09,01,16,4.80
2024,03,09,01,17,5.20
2024,03,09,01,18,5.10
2024,03,09,01,19,4.80
2024,03,09,01,20,4.70
2024,03,09,01,21,5.90
2024,03,09,01,22,4.90
2024,03,09,01,23,4.60
2024,03,09,01,24,4.60
2024,03,09,01,25,5.20
2024,03,09,01,26,4.80
2024,03,09,01,27,4.80
2024,03,09,01,28,5.60
2024,03,09,01,29,6.90
2024,03,09,01,30,5.10
2024,03,09,01,31,6.70
2024,03,09,01,32,7.10
2024,03,09,01,33,4.80
2024,03,09,01,34,6.00
2024,03,09,01,35,5.40
2024,03,09,01,36,3.40
2024,03,09,01,37,4.30
2024,03,09,01,38,2.90
2024,03,09,01,39,4.70
2024,03,09,01,40,4.70
2024,03,09,01,41,4.70
2024,03,09,01,42,4.90
2024,03,09,01,43,4.80
2024,03,09,01,44,5.40
2024,03,09,01,45,5.10
2024,03,09,01,46,2.60
2024,03,09,01,47,2.70
2024,03,09,01,48,3.10
2024,03,09,01,49,4.00
2024,03,09,01,50,3.80
2024,03,09,01,51,4.20
2024,03,09,01,52,4.20
2024,03,09,01,53,3.10
2024,03,09,01,54,5.40
2024,03,09,01,55,5.40
2024,03,09,01,56,4.00
2024,03,09,01,57,3.00
2024,03,09,01,58,3.80
2024,03,09,01,59,5.20
2024,03,09,02,00,5.60
2024,03,09,02,01,4.00
2024,03,09,02,02,3.20
2024,03,09,02,03,3.10
2024,03,09,02,04,3.90
2024,03,09,02,05,5.10
2024,03,09,02,06,4.90
2024,03,09,02,07,3.70
2024,03,09,02,08,4.10
2024,03,09,02,09,3.50
2024,03,09,02,10,3.40
2024,03,09,02,11,4.00
2024,03,09,02,12,3.50
2024,03,09,02,13,3.10
2024,03,09,02,14,3.60
2024,03,09,02,15,4.10
2024,03,09,02,16,2.80
2024,03,09,02,17,2.90
2024,03,09,02,18,2.10
2024,03,09,02,19,3.70
2024,03,09,02,20,4.70
2024,03,09,02,21,5.00
2024,03,09,02,22,5.10
2024,03,09,02,23,4.10
2024,03,09,02,24,4.50
2024,03,09,02,25,3.80
2024,03,09,02,26,3.40
2024,03,09,02,27,4.70
2024,03,09,02,28,4.50
2024,03,09,02,29,4.50
2024,03,09,02,30,5.80
2024,03,09,02,31,6.20
2024,03,09,02,32,5.20
2024,03,09,02,33,5.20
2024,03,09,02,34,5.10
2024,03,09,02,35,4.80
2024,03,09,02,36,4.80
2024,03,09,02,37,3.60
2024,03,09,02,38,4.70
2024,03,09,02,39,3.10
2024,03,09,02,40,3.70
2024,03,09,02,41,2.90
2024,03,09,02,42,3.80
2024,03,09,02,43,4.30
2024,03,09,02,44,4.30
2024,03,09,02,45,4.70
2024,03,09,02,46,4.90
2024,03,09,02,47,4.40
2024,03,09,02,48,4.20
2024,03,09,02,49,4.20
2024,03,09,02,50,4.70
2024,03,09,02,51,4.10
2024,03,09,02,52,3.90
2024,03,09,02,53,4.10
2024,03,09,02,54,4.70
2024,03,09,02,55,4.70
2024,03,09,02,56,3.90
2024,03,09,02,57,5.20
2024,03,09,02,58,4.70
2024,03,09,02,59,4.40
2024,03,09,03,00,5.60
2024,03,09,03,01,5.30
2024,03,09,03,02,5.70
2024,03,09,03,03,5.00
2024,03,09,03,04,5.30
2024,03,09,03,05,5.10
2024,03,09,03,06,5.30
2024,03,09,03,07,5.70
2024,03,09,03,08,5.50
2024,03,09,03,09,4.70
2024,03,09,03,10,4.90
2024,03,09,03,11,5.00
2024,03,09,03,12,4.70
2024,03,09,03,13,4.90
2024,03,09,03,14,5.30
2024,03,09,03,15,5.40
2024,03,09,03,16,4.90
2024,03,09,03,17,5.00
2024,03,09,03,18,4.20
2024,03,09,03,19,5.10
2024,03,09,03,20,4.20
2024,03,09,03,21,4.90
2024,03,09,03,22,4.70
2024,03,09,03,23,4.00
2024,03,09,03,24,4.70
2024,03,09,03,25,4.80
2024,03,09,03,26,5.80
2024,03,09,03,27,5.90
2024,03,09,03,28,5.60
2024,03,09,03,29,5.60
2024,03,09,03,30,5.00
2024,03,09,03,31,5.10
2024,03,09,03,32,4.70
2024,03,09,03,33,4.90
2024,03,09,03,34,5.10
2024,03,09,03,35,5.30
2024,03,09,03,36,5.30
2024,03,09,03,37,3.40
2024,03,09,03,38,4.70
2024,03,09,03,39,4.30
2024,03,09,03,40,3.70
2024,03,09,03,41,3.50
2024,03,09,03,42,3.50
2024,03,09,03,43,2.80
2024,03,09,03,44,3.00
2024,03,09,03,45,3.20
2024,03,09,03,46,4.70
2024,03,09,03,47,5.10
2024,03,09,03,48,7.50
2024,03,09,03,49,7.60
2024,03,09,03,50,8.10
2024,03,09,03,51,8.50
2024,03,09,03,52,7.80
2024,03,09,03,53,6.00
2024,03,09,03,54,3.50
2024,03,09,03,55,3.10
2024,03,09,03,56,3.70
2024,03,09,03,57,0.20
2024,03,09,03,58,2.20
2024,03,09,03,59,4.20
2024,03,09,04,00,4.20
2024,03,09,04,01,4.10
2024,03,09,04,02,5.60
2024,03,09,04,03,5.70
2024,03,09,04,04,6.10
2024,03,09,04,05,6.10
2024,03,09,04,06,7.50
2024,03,09,04,07,7.40
2024,03,09,04,08,6.30
2024,03,09,04,09,4.10
2024,03,09,04,10,4.20
2024,03,09,04,11,4.20
2024,03,09,04,12,5.20
2024,03,09,04,13,4.80
2024,03,09,04,14,5.30
2024,03,09,04,15,5.10
2024,03,09,04,16,3.70
2024,03,09,04,17,3.40
2024,03,09,04,18,2.70
2024,03,09,04,19,1.20
2024,03,09,04,20,0.00
2024,03,09,04,21,0.00
2024,03,09,04,22,0.00
2024,03,09,04,23,0.00
2024,03,09,04,24,0.00
2024,03,09,04,25,0.00
2024,03,09,04,26,0.00
2024,03,09,04,27,0.10
2024,03,09,04,28,2.40
2024,03,09,04,29,1.90
2024,03,09,04,30,0.20
2024,03,09,04,31,0.10
2024,03,09,04,32,0.00
2024,03,09,04,33,0.00
2024,03,09,04,34,2.40
2024,03,09,04,35,3.60
2024,03,09,04,36,2.40
2024,03,09,04,37,3.30
2024,03,09,04,38,3.70
2024,03,09,04,39,3.30
2024,03,09,04,40,4.60
2024,03,09,04,41,4.10
2024,03,09,04,42,3.30
2024,03,09,04,43,4.30
2024,03,09,04,44,4.80
2024,03,09,04,45,6.00
2024,03,09,04,46,6.00
2024,03,09,04,47,5.40
2024,03,09,04,48,5.70
2024,03,09,04,49,6.40
2024,03,09,04,50,4.00
2024,03,09,04,51,1.50
2024,03,09,04,52,1.90
2024,03,09,04,53,4.50
2024,03,09,04,54,7.10
2024,03,09,04,55,6.80
2024,03,09,04,56,5.80
2024,03,09,04,57,5.40
2024,03,09,04,58,5.40
2024,03,09,04,59,5.70
2024,03,09,05,00,7.30
2024,03,09,05,01,7.60
2024,03,09,05,02,7.20
2024,03,09,05,03,3.90
2024,03,09,05,04,2.20
2024,03,09,05,05,4.40
2024,03,09,05,06,6.50
2024,03,09,05,07,4.70
2024,03,09,05,08,5.60
2024,03,09,05,09,3.40
2024,03,09,05,10,1.80
2024,03,09,05,11,3.50
2024,03,09,05,12,2.60
2024,03,09,05,13,2.10
2024,03,09,05,14,1.60
2024,03,09,05,15,3.20
2024,03,09,05,16,4.50
2024,03,09,05,17,4.50
2024,03,09,05,18,5.20
2024,03,09,05,19,5.10
2024,03,09,05,20,6.10
2024,03,09,05,21,5.80
2024,03,09,05,22,6.70
2024,03,09,05,23,5.70
2024,03,09,05,24,6.10
2024,03,09,05,25,5.10
2024,03,09,05,26,4.00
2024,03,09,05,27,4.40
2024,03,09,05,28,3.70
2024,03,09,05,29,2.90
2024,03,09,05,30,2.60
2024,03,09,05,31,3.40
2024,03,09,05,32,4.10
2024,03,09,05,33,4.10
2024,03,09,05,34,6.10
2024,03,09,05,35,5.50
2024,03,09,05,36,4.70
2024,03,09,05,37,4.70
2024,03,09,05,38,4.80
2024,03,09,05,39,3.30
2024,03,09,05,40,0.60
2024,03,09,05,41,1.40
2024,03,09,05,42,2.20
2024,03,09,05,43,3.90
2024,03,09,05,44,3.30
2024,03,09,05,45,4.00
2024,03,09,05,46,4.00
2024,03,09,05,47,4.10
2024,03,09,05,48,3.80
2024,03,09,05,49,4.40
2024,03,09,05,50,4.00
2024,03,09,05,51,3.20
2024,03,09,05,52,3.80
2024,03,09,05,53,3.60
2024,03,09,05,54,5.30
2024,03,09,05,55,4.30
2024,03,09,05,56,4.30
2024,03,09,05,57,3.00
2024,03,09,05,58,3.30
2024,03,09,05,59,2.30
2024,03,09,06,00,2.30
2024,03,09,06,01,0.60
2024,03,09,06,02,0.00
2024,03,09,06,03,0.10
2024,03,09,06,04,1.00
2024,03,09,06,05,2.70
2024,03,09,06,06,3.30
2024,03,09,06,07,2.10
2024,03,09,06,08,5.10
2024,03,09,06,09,5.30
2024,03,09,06,10,5.60
2024,03,09,06,11,4.90
2024,03,09,06,12,5.70
2024,03,09,06,13,3.70
2024,03,09,06,14,3.10
2024,03,09,06,15,2.40
2024,03,09,06,16,4.30
2024,03,09,06,17,3.50
2024,03,09,06,18,5.60
2024,03,09,06,19,5.30
2024,03,09,06,20,5.80
2024,03,09,06,21,4.70
2024,03,09,06,22,4.30
2024,03,09,06,23,2.50
2024,03,09,06,24,1.20
2024,03,09,06,25,0.10
2024,03,09,06,26,0.00
2024,03,09,06,27,0.00
2024,03,09,06,28,0.60
2024,03,09,06,29,3.70
2024,03,09,06,30,4.90
2024,03,09,06,31,5.60
2024,03,09,06,32,4.90
2024,03,09,06,33,4.50
2024,03,09,06,34,3.60
2024,03,09,06,35,2.60
2024,03,09,06,36,2.40
2024,03,09,06,37,3.50
2024,03,09,06,38,2.60
2024,03,09,06,39,3.90
2024,03,09,06,40,4.40
2024,03,09,06,41,4.30
2024,03,09,06,42,4.10
2024,03,09,06,43,3.70
2024,03,09,06,44,3.70
2024,03,09,06,45,2.00
2024,03,09,06,46,1.60
2024,03,09,06,47,4.10
2024,03,09,06,48,4.30
2024,03,09,06,49,2.50
2024,03,09,06,50,3.70
2024,03,09,06,51,1.70
2024,03,09,06,52,1.40
2024,03,09,06,53,3.50
2024,03,09,06,54,3.00
2024,03,09,06,55,2.80
2024,03,09,06,56,1.30
2024,03,09,06,57,0.90
2024,03,09,06,58,0.50
2024,03,09,06,59,0.00
2024,03,09,07,00,0.00
2024,03,09,07,01,0.00
2024,03,09,07,02,0.00
2024,03,09,07,03,0.00
2024,03,09,07,04,0.00
2024,03,09,07,05,0.00
2024,03,09,07,06,0.00
2024,03,09,07,07,2.00
2024,03,09,07,08,3.10
2024,03,09,07,09,4.20
2024,03,09,07,10,5.40
2024,03,09,07,11,6.10
2024,03,09,07,12,5.50
2024,03,09,07,13,5.20
2024,03,09,07,14,7.30
2024,03,09,07,15,6.80
2024,03,09,07,16,7.00
2024,03,09,07,17,7.40
2024,03,09,07,18,8.50
2024,03,09,07,19,9.50
2024,03,09,07,20,6.40
2024,03,09,07,21,7.00
2024,03,09,07,22,5.40
2024,03,09,07,23,3.60
2024,03,09,07,24,4.50
2024,03,09,07,25,3.20
2024,03,09,07,26,2.90
2024,03,09,07,27,4.40
2024,03,09,07,28,5.40
2024,03,09,07,29,4.10
2024,03,09,07,30,0.20
2024,03,09,07,31,0.00
2024,03,09,07,32,0.00
2024,03,09,07,33,0.00
2024,03,09,07,34,0.00
2024,03,09,07,35,0.00
2024,03,09,07,36,0.00
2024,03,09,07,37,0.00
2024,03,09,07,38,0.00
2024,03,09,07,39,0.00
2024,03,09,07,40,0.00
2024,03,09,07,41,0.10
2024,03,09,07,42,0.00
2024,03,09,07,43,0.30
2024,03,09,07,44,2.60
2024,03,09,07,45,3.90
2024,03,09,07,46,4.90
2024,03,09,07,47,1.90
2024,03,09,07,48,0.20
2024,03,09,07,49,0.10
2024,03,09,07,50,0.00
2024,03,09,07,51,1.10
2024,03,09,07,52,1.70
2024,03,09,07,53,1.70
2024,03,09,07,54,0.00
2024,03,09,07,55,0.00
2024,03,09,07,56,0.00
2024,03,09,07,57,0.00
2024,03,09,07,58,0.10
2024,03,09,07,59,0.90
2024,03,09,08,00,2.70
2024,03,09,08,01,1.00
2024,03,09,08,02,0.00
2024,03,09,08,03,0.00
2024,03,09,08,04,0.40
2024,03,09,08,05,3.50
2024,03,09,08,06,3.70
2024,03,09,08,07,4.10
2024,03,09,08,08,2.70
2024,03,09,08,09,4.70
2024,03,09,08,10,5.10
2024,03,09,08,11,4.30
2024,03,09,08,12,4.40
2024,03,09,08,13,2.80
2024,03,09,08,14,2.40
2024,03,09,08,15,5.40
2024,03,09,08,16,7.30
2024,03,09,08,17,5.30
2024,03,09,08,18,6.30
2024,03,09,08,19,6.40
2024,03,09,08,20,5.60
2024,03,09,08,21,7.00
2024,03,09,08,22,5.00
2024,03,09,08,23,0.40
2024,03,09,08,24,3.70
2024,03,09,08,25,3.10
2024,03,09,08,26,4.50
2024,03,09,08,27,4.20
2024,03,09,08,28,4.60
2024,03,09,08,29,4.90
2024,03,09,08,30,4.00
2024,03,09,08,31,4.30
2024,03,09,08,32,3.50
2024,03,09,08,33,4.00
2024,03,09,08,34,4.90
2024,03,09,08,35,4.00
2024,03,09,08,36,6.40
2024,03,09,08,37,5.70
2024,03,09,08,38,4.60
2024,03,09,08,39,5.80
2024,03,09,08,40,6.60
2024,03,09,08,41,8.00
2024,03,09,08,42,8.10
2024,03,09,08,43,7.40
2024,03,09,08,44,9.70
2024,03,09,08,45,7.20
2024,03,09,08,46,6.10
2024,03,09,08,47,5.30
2024,03,09,08,48,2.70
2024,03,09,08,49,3.20
2024,03,09,08,50,4.40
2024,03,09,08,51,3.90
2024,03,09,08,52,4.40
2024,03,09,08,53,3.00
2024,03,09,08,54,3.10
2024,03,09,08,55,3.30
2024,03,09,08,56,4.30
2024,03,09,08,57,2.90
2024,03,09,08,58,1.60
2024,03,09,08,59,3.10
2024,03,09,09,00,5.20
2024,03,09,09,01,3.20
2024,03,09,09,02,5.80
2024,03,09,09,03,7.00
2024,03,09,09,04,6.10
2024,03,09,09,05,5.80
2024,03,09,09,06,3.50
2024,03,09,09,07,4.70
2024,03,09,09,08,3.00
2024,03,09,09,09,2.90
2024,03,09,09,10,0.70
2024,03,09,09,11,0.00
2024,03,09,09,12,0.00
2024,03,09,09,13,3.10
2024,03,09,09,14,4.60
2024,03,09,09,15,5.10
2024,03,09,09,16,4.90
2024,03,09,09,17,6.00
2024,03,09,09,18,6.40
2024,03,09,09,19,6.20
2024,03,09,09,20,3.60
2024,03,09,09,21,1.10
2024,03,09,09,22,0.60
2024,03,09,09,23,3.40
2024,03,09,09,24,2.30
2024,03,09,09,25,3.90
2024,03,09,09,26,3.40
2024,03,09,09,27,4.70
2024,03,09,09,28,4.20
2024,03,09,09,29,2.80
2024,03,09,09,30,3.70
2024,03,09,09,31,1.00
2024,03,09,09,32,0.20
2024,03,09,09,33,0.00
2024,03,09,09,34,0.50
2024,03,09,09,35,2.60
2024,03,09,09,36,0.30
2024,03,09,09,37,2.70
2024,03,09,09,38,0.80
2024,03,09,09,39,0.60
2024,03,09,09,40,0.80
2024,03,09,09,41,3.00
2024,03,09,09,42,2.40
2024,03,09,09,43,2.90
2024,03,09,09,44,0.00
2024,03,09,09,45,0.60
2024,03,09,09,46,1.90
2024,03,09,09,47,0.10
2024,03,09,09,48,0.00
2024,03,09,09,49,0.20
2024,03,09,09,50,3.60
2024,03,09,09,51,6.00
2024,03,09,09,52,9.20
2024,03,09,09,53,8.70
2024,03,09,09,54,12.40
2024,03,09,09,55,7.60
2024,03,09,09,56,9.60
2024,03,09,09,57,7.90
2024,03,09,09,58,7.70
2024,03,09,09,59,11.20
2024,03,09,10,00,9.80
2024,03,09,10,01,6.10
2024,03,09,10,02,7.10
2024,03,09,10,03,8.40
2024,03,09,10,04,15.40
2024,03,09,10,05,12.40
2024,03,09,10,06,13.60
2024,03,09,10,07,9.70
2024,03,09,10,08,13.60
2024,03,09,10,09,11.50
2024,03,09,10,10,12.70
2024,03,09,10,11,13.70
2024,03,09,10,12,10.90
2024,03,09,10,13,9.30
2024,03,09,10,14,8.90
2024,03,09,10,15,12.80
2024,03,09,10,16,13.50
2024,03,09,10,17,13.00
2024,03,09,10,18,10.50
2024,03,09,10,19,13.30
2024,03,09,10,20,11.40
2024,03,09,10,21,11.70
2024,03,09,10,22,8.90
2024,03,09,10,23,10.00
2024,03,09,10,24,10.50
2024,03,09,10,25,12.50
2024,03,09,10,26,10.00
2024,03,09,10,27,9.00
2024,03,09,10,28,6.70
2024,03,09,10,29,7.80
2024,03,09,10,30,8.90
2024,03,09,10,31,8.90
2024,03,09,10,32,8.50
2024,03,09,10,33,6.50
2024,03,09,10,34,2.20
2024,03,09,10,35,0.60
2024,03,09,10,36,1.40
2024,03,09,10,37,0.00
2024,03,09,10,38,0.00
2024,03,09,10,39,0.00
2024,03,09,10,40,0.00
2024,03,09,10,41,0.00
2024,03,09,10,42,2.40
2024,03,09,10,43,6.40
2024,03,09,10,44,5.50
2024,03,09,10,45,3.00
2024,03,09,10,46,0.00
2024,03,09,10,47,0.20
2024,03,09,10,48,2.40
2024,03,09,10,49,2.20
2024,03,09,10,50,3.00
2024,03,09,10,51,4.70
2024,03,09,10,52,0.60
2024,03,09,10,53,0.80
2024,03,09,10,54,0.00
2024,03,09,10,55,0.00
2024,03,09,10,56,0.00
2024,03,09,10,57,0.90
2024,03,09,10,58,2.50
2024,03,09,10,59,0.10
2024,03,09,11,00,1.10
2024,03,09,11,01,1.50
2024,03,09,11,02,0.90
2024,03,09,11,03,0.20
2024,03,09,11,04,4.60
2024,03,09,11,05,4.80
2024,03,09,11,06,0.30
2024,03,09,11,07,3.30
2024,03,09,11,08,2.50
2024,03,09,11,09,3.30
2024,03,09,11,10,6.80
2024,03,09,11,11,5.70
2024,03,09,11,12,4.00
2024,03,09,11,13,3.50
2024,03,09,11,14,0.40
2024,03,09,11,15,0.80
2024,03,09,11,16,6.00
2024,03,09,11,17,6.40
2024,03,09,11,18,7.40
2024,03,09,11,19,7.60
2024,03,09,11,20,5.20
2024,03,09,11,21,9.70
2024,03,09,11,22,10.90
2024,03,09,11,23,7.80
2024,03,09,11,24,7.70
2024,03,09,11,25,4.40
2024,03,09,11,26,6.70
2024,03,09,11,27,5.60
2024,03,09,11,28,7.20
2024,03,09,11,29,12.20
2024,03,09,11,30,12.60
2024,03,09,11,31,7.20
2024,03,09,11,32,9.40
2024,03,09,11,33,8.70
2024,03,09,11,34,5.60
2024,03,09,11,35,5.90
2024,03,09,11,36,7.80
2024,03,09,11,37,8.00
2024,03,09,11,38,6.90
2024,03,09,11,39,6.40
2024,03,09,11,40,10.00
2024,03,09,11,41,5.60
2024,03,09,11,42,8.40
2024,03,09,11,43,11.10
2024,03,09,11,44,6.50
2024,03,09,11,45,6.40
2024,03,09,11,46,8.60
2024,03,09,11,47,11.30
2024,03,09,11,48,14.70
2024,03,09,11,49,18.50
2024,03,09,11,50,17.40
2024,03,09,11,51,13.50
2024,03,09,11,52,12.00
2024,03,09,11,53,11.90
2024,03,09,11,54,18.00
2024,03,09,11,55,20.50
2024,03,09,11,56,21.50
2024,03,09,11,57,16.90
2024,03,09,11,58,15.80
2024,03,09,11,59,14.00
2024,03,09,12,00,16.20
2024,03,09,12,01,14.10
2024,03,09,12,02,14.90
2024,03,09,12,03,12.50
2024,03,09,12,04,14.00
2024,03,09,12,05,9.70
2024,03,09,12,06,15.80
2024,03,09,12,07,16.20
2024,03,09,12,08,11.10
2024,03,09,12,09,15.10
2024,03,09,12,10,18.30
2024,03,09,12,11,17.40
2024,03,09,12,12,15.80
2024,03,09,12,13,21.80
2024,03,09,12,14,18.50
2024,03,09,12,15,21.50
2024,03,09,12,16,15.60
2024,03,09,12,17,12.40
2024,03,09,12,18,15.80
2024,03,09,12,19,19.80
2024,03,09,12,20,24.00
2024,03,09,12,21,20.60
2024,03,09,12,22,22.90
2024,03,09,12,23,16.50
2024,03,09,12,24,17.50
2024,03,09,12,25,19.80
2024,03,09,12,26,14.70
2024,03,09,12,27,12.30
2024,03,09,12,28,17.60
2024,03,09,12,29,14.40
2024,03,09,12,30,14.80
2024,03,09,12,31,15.90
2024,03,09,12,32,12.40
2024,03,09,12,33,15.20
2024,03,09,12,34,17.70
2024,03,09,12,35,13.30
2024,03,09,12,36,15.90
2024,03,09,12,37,15.70
2024,03,09,12,38,13.60
2024,03,09,12,39,19.20
2024,03,09,12,40,13.40
2024,03,09,12,41,19.50
2024,03,09,12,42,19.00
2024,03,09,12,43,15.00
2024,03,09,12,44,14.00
2024,03,09,12,45,13.50
2024,03,09,12,46,14.00
2024,03,09,12,47,12.50
2024,03,09,12,48,13.30
2024,03,09,12,49,20.30
2024,03,09,12,50,13.20
2024,03,09,12,51,13.10
2024,03,09,12,52,19.10
2024,03,09,12,53,15.10
2024,03,09,12,54,16.10
2024,03,09,12,55,14.10
2024,03,09,12,56,11.00
2024,03,09,12,57,11.30
2024,03,09,12,58,9.20
2024,03,09,12,59,12.30
2024,03,09,13,00,8.60
2024,03,09,13,01,13.10
2024,03,09,13,02,22.10
2024,03,09,13,03,21.10
2024,03,09,13,04,19.90
2024,03,09,13,05,13.10
2024,03,09,13,06,14.10
2024,03,09,13,07,13.00
2024,03,09,13,08,12.70
2024,03,09,13,09,8.40
2024,03,09,13,10,9.60
2024,03,09,13,11,11.40
2024,03,09,13,12,9.30
2024,03,09,13,13,16.50
2024,03,09,13,14,12.40
2024,03,09,13,15,12.20
2024,03,09,13,16,18.70
2024,03,09,13,17,18.40
2024,03,09,13,18,10.30
2024,03,09,13,19,12.80
2024,03,09,13,20,12.60
2024,03,09,13,21,15.20
2024,03,09,13,22,15.90
2024,03,09,13,23,13.90
2024,03,09,13,24,13.80
2024,03,09,13,25,15.90
2024,03,09,13,26,11.40
2024,03,09,13,27,9.70
2024,03,09,13,28,10.70
2024,03,09,13,29,13.90
2024,03,09,13,30,17.10
2024,03,09,13,31,12.30
2024,03,09,13,32,13.30
2024,03,09,13,33,15.90
2024,03,09,13,34,12.90
2024,03,09,13,35,13.30
2024,03,09,13,36,11.70
2024,03,09,13,37,10.70
2024,03,09,13,38,13.50
2024,03,09,13,39,11.30
2024,03,09,13,40,13.90
2024,03,09,13,41,16.00
2024,03,09,13,42,9.70
2024,03,09,13,43,16.00
2024,03,09,13,44,16.60
2024,03,09,13,45,16.90
2024,03,09,13,46,21.20
2024,03,09,13,47,17.10
2024,03,09,13,48,14.30
2024,03,09,13,49,14.30
2024,03,09,13,50,13.10
2024,03,09,13,51,14.40
2024,03,09,13,52,12.90
2024,03,09,13,53,14.80
2024,03,09,13,54,13.10
2024,03,09,13,55,13.70
2024,03,09,13,56,9.90
2024,03,09,13,57,14.30
2024,03,09,13,58,15.90
2024,03,09,13,59,10.40
2024,03,09,14,00,13.60
2024,03,09,14,01,14.30
2024,03,09,14,02,13.90
2024,03,09,14,03,14.80
2024,03,09,14,04,15.40
2024,03,09,14,05,15.00
2024,03,09,14,06,16.30
2024,03,09,14,07,21.30
2024,03,09,14,08,18.20
2024,03,09,14,09,12.30
2024,03,09,14,10,12.30
2024,03,09,14,11,14.90
2024,03,09,14,12,16.40
2024,03,09,14,13,12.70
2024,03,09,14,14,10.00
2024,03,09,14,15,7.00
2024,03,09,14,16,8.90
2024,03,09,14,17,9.60
2024,03,09,14,18,11.40
2024,03,09,14,19,13.40
2024,03,09,14,20,10.50
2024,03,09,14,21,11.70
2024,03,09,14,22,9.60
2024,03,09,14,23,16.30
2024,03,09,14,24,24.00
2024,03,09,14,25,23.00
2024,03,09,14,26,15.30
2024,03,09,14,27,20.00
2024,03,09,14,28,19.30
2024,03,09,14,29,22.80
2024,03,09,14,30,18.50
2024,03,09,14,31,17.80
2024,03,09,14,32,16.40
2024,03,09,14,33,10.00
2024,03,09,14,34,12.40
2024,03,09,14,35,12.30
2024,03,09,14,36,16.40
2024,03,09,14,37,13.50
2024,03,09,14,38,15.10
2024,03,09,14,39,17.90
2024,03,09,14,40,16.70
2024,03,09,14,41,12.90
2024,03,09,14,42,9.70
2024,03,09,14,43,13.00
2024,03,09,14,44,16.40
2024,03,09,14,45,12.30
2024,03,09,14,46,14.90
2024,03,09,14,47,11.30
2024,03,09,14,48,9.20
2024,03,09,14,49,10.10
2024,03,09,14,50,12.40
2024,03,09,14,51,15.10
2024,03,09,14,52,14.30
2024,03,09,14,53,7.80
2024,03,09,14,54,13.30
2024,03,09,14,55,15.80
2024,03,09,14,56,19.40
2024,03,09,14,57,17.00
2024,03,09,14,58,14.50
2024,03,09,14,59,12.00
2024,03,09,15,00,14.90
2024,03,09,15,01,13.40
2024,03,09,15,02,13.50
2024,03,09,15,03,11.10
2024,03,09,15,04,17.90
2024,03,09,15,05,16.20
2024,03,09,15,06,14.60
2024,03,09,15,07,17.40
2024,03,09,15,08,13.70
2024,03,09,15,09,14.60
2024,03,09,15,10,14.90
2024,03,09,15,11,14.40
2024,03,09,15,12,13.50
2024,03,09,15,13,13.60
2024,03,09,15,14,10.80
2024,03,09,15,15,12.50
2024,03,09,15,16,10.50
2024,03,09,15,17,12.60
2024,03,09,15,18,16.90
2024,03,09,15,19,9.70
2024,03,09,15,20,9.70
2024,03,09,15,21,13.00
2024,03,09,15,22,15.20
2024,03,09,15,23,11.70
2024,03,09,15,24,12.80
2024,03,09,15,25,9.30
2024,03,09,15,26,14.90
2024,03,09,15,27,18.60
2024,03,09,15,28,10.10
2024,03,09,15,29,12.90
2024,03,09,15,30,11.70
2024,03,09,15,31,11.80
2024,03,09,15,32,12.00
2024,03,09,15,33,12.30
2024,03,09,15,34,13.90
2024,03,09,15,35,11.00
2024,03,09,15,36,17.10
2024,03,09,15,37,17.70
2024,03,09,15,38,15.60
2024,03,09,15,39,16.20
2024,03,09,15,40,19.60
2024,03,09,15,41,21.10
2024,03,09,15,42,19.60
2024,03,09,15,43,21.20
2024,03,09,15,44,20.50
2024,03,09,15,45,15.30
2024,03,09,15,46,15.80
2024,03,09,15,47,23.30
2024,03,09,15,48,14.20
2024,03,09,15,49,17.50
2024,03,09,15,50,13.90
2024,03,09,15,51,16.70
2024,03,09,15,52,11.10
2024,03,09,15,53,10.40
2024,03,09,15,54,10.30
2024,03,09,15,55,12.60
2024,03,09,15,56,13.70
2024,03,09,15,57,14.50
2024,03,09,15,58,15.10
2024,03,09,15,59,16.50
2024,03,09,16,00,13.80
2024,03,09,16,01,12.10
2024,03,09,16,02,12.00
2024,03,09,16,03,11.10
2024,03,09,16,04,14.80
2024,03,09,16,05,13.30
2024,03,09,16,06,14.90
2024,03,09,16,07,15.80
2024,03,09,16,08,13.70
2024,03,09,16,09,16.90
2024,03,09,16,10,14.10
2024,03,09,16,11,11.50
2024,03,09,16,12,14.30
2024,03,09,16,13,17.60
2024,03,09,16,14,14.20
2024,03,09,16,15,15.40
2024,03,09,16,16,12.80
2024,03,09,16,17,15.70
2024,03,09,16,18,13.00
2024,03,09,16,19,13.50
2024,03,09,16,20,19.60
2024,03,09,16,21,13.20
2024,03,09,16,22,11.60
2024,03,09,16,23,12.00
2024,03,09,16,24,17.00
2024,03,09,16,25,13.10
2024,03,09,16,26,12.20
2024,03,09,16,27,9.20
2024,03,09,16,28,8.50
2024,03,09,16,29,12.60
2024,03,09,16,30,16.50
2024,03,09,16,31,10.00
2024,03,09,16,32,18.80
2024,03,09,16,33,17.80
2024,03,09,16,34,16.20
2024,03,09,16,35,11.40
2024,03,09,16,36,10.50
2024,03,09,16,37,12.30
2024,03,09,16,38,12.90
2024,03,09,16,39,12.40
2024,03,09,16,40,12.40
2024,03,09,16,41,9.00
2024,03,09,16,42,10.50
2024,03,09,16,43,12.80
2024,03,09,16,44,9.20
2024,03,09,16,45,10.80
2024,03,09,16,46,20.80
2024,03,09,16,47,14.40
2024,03,09,16,48,12.50
2024,03,09,16,49,9.90
2024,03,09,16,50,20.30
2024,03,09,16,51,14.50
2024,03,09,16,52,20.90
2024,03,09,16,53,16.70
2024,03,09,16,54,12.90
2024,03,09,16,55,12.40
2024,03,09,16,56,15.40
2024,03,09,16,57,14.70
2024,03,09,16,58,14.90
2024,03,09,16,59,13.70
2024,03,09,17,00,13.60
2024,03,09,17,01,11.60
2024,03,09,17,02,10.30
2024,03,09,17,03,10.30
2024,03,09,17,04,9.70
2024,03,09,17,05,9.80
2024,03,09,17,06,12.40
2024,03,09,17,07,10.40
2024,03,09,17,08,8.40
2024,03,09,17,09,8.10
2024,03,09,17,10,6.20
2024,03,09,17,11,5.70
2024,03,09,17,12,5.00
2024,03,09,17,13,9.50
2024,03,09,17,14,10.60
2024,03,09,17,15,7.60
2024,03,09,17,16,6.60
2024,03,09,17,17,5.60
2024,03,09,17,18,7.40
2024,03,09,17,19,8.00
2024,03,09,17,20,6.00
2024,03,09,17,21,6.70
2024,03,09,17,22,7.60
2024,03,09,17,23,7.70
2024,03,09,17,24,7.10
2024,03,09,17,25,7.30
2024,03,09,17,26,7.00
2024,03,09,17,27,6.80
2024,03,09,17,28,7.80
2024,03,09,17,29,7.60
2024,03,09,17,30,6.40
2024,03,09,17,31,6.70
2024,03,09,17,32,7.00
2024,03,09,17,33,7.50
2024,03,09,17,34,8.90
2024,03,09,17,35,7.50
2024,03,09,17,36,9.20
2024,03,09,17,37,7.30
2024,03,09,17,38,5.20
2024,03,09,17,39,7.60
2024,03,09,17,40,8.60
2024,03,09,17,41,6.80
2024,03,09,17,42,7.10
2024,03,09,17,43,7.20
2024,03,09,17,44,5.80
2024,03,09,17,45,4.60
2024,03,09,17,46,5.00
2024,03,09,17,47,4.90
2024,03,09,17,48,9.90
2024,03,09,17,49,10.30
2024,03,09,17,50,7.40
2024,03,09,17,51,8.00